GSAT0219 (GALILEO 23) (43566 NORAD) Tracking and Keplerian Element Data

This shows tracking and keplerian element data for the satellite.

Feedback or suggestion? Click here.




ElementValue
Catalog43566
NameGSAT0219 (GALILEO 23)
Epoch Orbit600
Epoch Day192.04687426
Epoch Year2019
RAAN50.443
Inclination56.5811
Eccentricity0.0002206
Argument of Perigee293.2249
Mean Anonmoly66.8126
Mean Motion1.70475573
Decay Rate-7.9E-07
L11 43566U 18060C 19192.04687426 -.00000079 00000-0 00000-0 0 9995
L22 43566 56.5811 50.4430 0002206 293.2249 66.8126 1.70475573 6003

Live tracking and technical data element details for GSAT0219 (GALILEO 23) (NORAD 43566). GSAT0219 (GALILEO 23) can be tracked NOW for your location showing map with azimuth and elevation plus other details from your city location.

Track the satellite on the map from your city or location and see movement details for azimuth, elevation, latitude, longitude, range, height, and movement on the map or in text.







IsCatalogInMostPopularTable: catalog: 43566, numindb: 178
Update: records affected: 1



GetName: 43566 GSAT0219 (GALILEO 23)

Hit Count: updated at: Wed, 17 Jul 2019 08:29:45 GMT